This demonstration page uses our WeatherBlox Daily Observations layout. Learn more.

Left ArrowRight Arrow

38.89511, -77.03637

Hourly Observations for February 16, 2017

Temp ( °F °C ) Dew Point ( °F °C ) Humidity (%) Winds ( mph kmh ) Pressure ( in mb ) Visibility ( mi km ) Precip ( " mm )
12:52 am 00:52 Partly Cloudy 37 2.8 18 -7.8 46 46 W 8 13 29.66 1004 10 16 0.00 0.00
1:52 am 01:52 Mostly Cloudy 36 2.2 23 -5 59 59 NW 10 17 29.67 1005 10 16 0.00 0.00
2:52 am 02:52 Mostly Clear 35 1.7 18 -7.8 50 50 NW 10 17 29.67 1005 10 16 0.00 0.00
3:52 am 03:52 Mostly Cloudy 34 1.1 15 -9.4 46 46 W 14 22 29.68 1005 10 16 0.00 0.00
4:52 am 04:52 Partly Cloudy 34 1.1 15 -9.4 46 46 WNW 9 15 29.70 1006 10 16 0.00 0.00
5:52 am 05:52 Partly Cloudy 34 1.1 17 -8.3 50 50 WNW 15 24 29.72 1007 10 16 0.00 0.00
6:52 am 06:52 Mostly Cloudy 33 0.6 17 -8.3 52 52 NW 10 17 29.75 1007 10 16 0.00 0.00
7:52 am 07:52 Mostly Cloudy 34 1.1 20 -6.7 56 56 W 13 20 29.78 1009 10 16 0.00 0.00
8:33 am 08:33 Cloudy with Light Snow 33 0.6 23 -5 66 66 WNW 13 20 29.80 1009 3 5 0.00 0.03
8:39 am 08:39 Cloudy with Light Snow 33 0.6 23 -5 66 66 WNW 12 19 29.80 1009 5 8 0.00 0.03
8:52 am 08:52 Cloudy 34 1.1 22 -5.6 61 61 WNW 15 24 29.80 1009 7 11 0.00 0.03
9:52 am 09:52 Mostly Cloudy 38 3.3 18 -7.8 44 44 WNW 16 26 29.80 1009 10 16 0.00 0.00
10:52 am 10:52 Mostly Cloudy 37 2.8 13 -10.6 37 37 NW 21 33 29.80 1009 10 16 0.00 0.00
11:52 am 11:52 Mostly Cloudy 39 3.9 14 -10 36 36 WNW 17 28 29.80 1009 10 16 0.00 0.00
12:52 pm 12:52 Cloudy 39 3.9 13 -10.6 34 34 WNW 18 30 29.79 1009 10 16 0.00 0.00
1:52 pm 13:52 Mostly Cloudy 40 4.4 14 -10 35 35 NW 20 31 29.80 1009 10 16 0.00 0.00
2:52 pm 14:52 Mostly Cloudy 39 3.9 14 -10 36 36 NW 21 33 29.81 1009 10 16 0.00 0.00
3:52 pm 15:52 Mostly Cloudy 39 3.9 14 -10 36 36 WNW 20 31 29.83 1010 10 16 0.00 0.00
4:52 pm 16:52 Partly Cloudy 39 3.9 14 -10 36 36 NW 14 22 29.84 1011 10 16 0.00 0.00
5:52 pm 17:52 Clear 37 2.8 14 -10 39 39 NW 15 24 29.87 1012 10 16 0.00 0.00
6:52 pm 18:52 Clear 36 2.2 13 -10.6 39 39 NW 13 20 29.89 1012 10 16 0.00 0.00
7:52 pm 19:52 Clear 35 1.7 14 -10 42 42 NNW 10 17 29.90 1013 10 16 0.00 0.00
8:52 pm 20:52 Clear 34 1.1 14 -10 44 44 NNW 6 9 29.92 1013 10 16 0.00 0.00
9:52 pm 21:52 Clear 33 0.6 14 -10 45 45 NW 8 13 29.93 1014 10 16 0.00 0.00
10:52 pm 22:52 Clear 33 0.6 15 -9.4 47 47 NW 10 17 29.94 1014 10 16 0.00 0.00
11:52 pm 23:52 Clear 32 0 15 -9.4 50 50 WNW 7 11 29.95 1014 10 16 0.00 0.00

Powered by AerisWeather